[[{"header":{"parameterUnit":"m.s-1","parameterCategory":1,"la1":30.2991,"la2":30.254,"lo1":-89.0895,"lo2":-89.0444,"dy":0.0017,"dx":0.0017,"nx":28,"ny":28,"refTime":"2023-08-07T03:00:00:Z","depth":0,"parameterNumber":2,"parameterNumberName":"U-component_of_WINDS"},"data":[0,0,0,0,0,0,0,0,0,0,0,0,0,0,0,0,0,0,0,0,0,0,0,0,0,0,0,0,0,0,0,0,0,0,0,0,0,0,0,0,0,0,0,0,0,0,0,0,0,0,0,0,0,0,0,0,0,0,2.5835,2.5836,0,2.5966,2.5968,2.5969,2.6012,2.6011,2.601,2.601,2.615,2.6154,2.6158,0,0,0,0,0,0,0,0,0,0,0,0,0,2.5625,2.5629,2.5834,2.5836,2.5838,2.5966,2.5968,2.597,2.6012,2.6011,2.601,2.601,2.6148,2.6153,2.6158,0,0,0,0,0,0,0,0,0,0,0,0,0,2.5733,2.563,2.5834,2.5874,2.5879,2.5966,2.5968,2.597,2.6012,2.6011,2.601,2.6009,2.6147,2.6153,2.6159,2.6217,0,0,2.6179,2.6182,0,0,0,0,0,0,0,0,2.5726,2.574,2.5866,2.5871,2.5877,2.5971,2.5945,2.6053,2.6012,2.5962,2.601,2.6009,2.6091,2.6102,2.6129,2.6224,2.623,2.6179,2.6183,2.6186,2.6188,0,0,0,0,0,0,0,2.5719,2.5735,2.5887,2.5868,2.5875,2.5887,2.5902,2.5966,2.603,2.5966,2.5969,2.5984,2.6094,2.6123,2.6133,2.6232,2.6179,2.6185,2.6189,2.6191,2.6383,2.6384,0,0,0,0,0,0,2.5704,2.5728,2.5883,2.5891,2.5798,2.5892,2.5908,2.5942,2.603,2.6042,2.5985,2.5985,2.6112,2.6125,2.6138,2.6212,2.6186,2.6192,2.6196,2.6382,2.6383,2.6385,0,0,0,0,0,0,2.5699,2.5717,2.5877,2.581,2.5832,2.5896,2.5935,2.5945,2.5974,2.6044,2.6056,2.6002,2.6112,2.6129,2.6197,2.6218,2.6195,2.6201,2.6381,2.6382,2.6384,2.6361,0,0,0,0,0,0,2.5693,2.5715,2.5736,2.5811,2.5835,2.5932,2.5936,2.5948,2.5984,2.5987,2.6063,2.6075,2.6113,2.6187,2.6204,2.6226,2.6206,2.6379,2.6381,2.6384,2.636,2.6362,2.6363,0,0,0,0,0,2.5685,2.5725,2.5737,2.5755,2.5862,2.5933,2.5948,2.5989,2.5986,2.6008,2.6054,2.6072,2.6213,2.6194,2.6213,2.6238,2.6378,2.6381,2.6383,2.636,2.6362,2.6363,0,0,0,0,0,0,2.5653,2.5735,2.575,2.5814,2.5866,2.594,2.597,2.5989,2.6045,2.6045,2.6096,2.6113,2.6177,2.6215,2.6192,2.63,2.6297,2.6303,2.6272,2.6275,2.6276,2.6265,2.6211,0,0,0,0,0,2.5653,2.5701,2.5772,2.5823,2.5848,2.5904,2.5937,2.5964,2.6021,2.6044,2.6094,2.6149,2.6207,2.6243,2.6299,2.6367,2.6385,2.6393,2.6395,2.6396,2.64,2.644,2.6445,2.6394,2.6394,2.6394,0,0,2.5654,2.5705,2.5733,2.5817,2.5861,2.5912,2.5923,2.5976,2.6015,2.6052,2.6119,2.6159,2.6225,2.6293,2.6326,2.6326,2.6419,2.6399,2.6399,2.6404,2.6444,2.6449,2.6453,2.6396,2.6395,2.6395,0,0,2.5681,2.5725,2.5772,2.5815,2.5881,2.5919,2.593,2.6002,2.6029,2.6097,2.6126,2.6175,2.6272,2.6318,2.6354,2.6402,2.6422,2.6419,2.6427,2.6465,2.6469,2.6473,2.649,2.6496,2.6424,2.6424,2.6424,0,2.5674,2.5751,2.5794,2.5846,2.5883,2.5919,2.5968,2.6009,2.609,2.6116,2.6115,2.6238,2.6285,2.6365,2.6377,2.6405,2.6421,2.641,2.6465,2.6469,2.6473,2.6491,2.6497,2.6423,2.6424,2.6424,2.6424,0,2.574,2.5793,2.5823,2.5899,2.5941,2.5991,2.6044,2.608,2.6105,2.6144,2.6214,2.6272,2.6341,2.6363,2.6388,2.6448,2.6446,2.6454,2.6452,2.6477,2.6494,2.6501,2.6422,2.6423,2.6423,2.6423,0,0,2.5748,2.5849,2.5859,2.5895,2.5971,2.6014,2.6068,2.6134,2.6165,2.6221,2.6268,2.635,2.6359,2.64,2.6432,2.6465,2.65,2.647,2.6473,2.6474,2.6571,2.6563,2.657,2.6515,2.6516,2.6517,2.6565,0,2.5785,2.5879,2.5921,2.5998,2.6048,2.6084,2.6132,2.6185,2.6223,2.6273,2.6317,2.6374,2.6381,2.6406,2.6441,2.6488,2.6521,2.6486,2.656,2.6562,2.6541,2.6579,2.6571,2.6613,2.6572,2.6573,2.6574,0,2.584,2.5895,2.5976,2.6048,2.6071,2.6112,2.6177,2.6225,2.6287,2.6313,2.6359,2.6389,2.6449,2.6444,2.6529,2.6504,2.6538,2.6566,2.6569,2.6576,2.6569,2.6587,2.6627,2.6633,2.6585,2.6584,2.6584,0,2.5838,2.5933,2.5994,2.6024,2.6109,2.6137,2.6174,2.6236,2.6274,2.6332,2.6357,2.6422,2.6458,2.6508,2.6556,2.6548,2.6636,2.6635,2.666,2.6659,2.6676,2.6674,2.6721,2.6699,2.6699,2.6699,2.6699,0,2.5874,2.5923,2.5994,2.6031,2.6088,2.6137,2.6192,2.6232,2.6287,2.6334,2.6371,2.6415,2.6475,2.6528,2.6567,2.6631,2.6647,2.6671,2.668,2.6667,2.6664,2.6689,2.6687,2.67,2.67,2.67,2.6699,0,2.588,2.593,2.5999,2.6075,2.6095,2.6133,2.6199,2.6238,2.6279,2.6339,2.6356,2.6421,2.6485,2.6538,2.6622,2.6648,2.6716,2.6727,2.6694,2.6699,2.6721,2.6718,2.6785,2.6797,2.6766,2.6767,2.6767,0,2.59,2.5938,2.6018,2.6051,2.6088,2.6142,2.6181,2.6232,2.6272,2.6347,2.6377,2.6444,2.6499,2.6601,2.6656,2.6722,2.6735,2.6754,2.6745,2.6731,2.6735,2.6732,2.6736,2.6754,2.6754,2.6754,2.6755,0,2.5929,2.5952,2.6006,2.6069,2.6115,2.6167,2.6221,2.6247,2.6308,2.6351,2.6417,2.646,2.6546,2.6613,2.6684,2.6725,2.6751,2.6757,2.6767,2.6753,2.6732,2.6744,2.6695,2.6755,2.6755,2.6755,2.6755,2.6755,2.5943,2.5979,2.6041,2.61,2.6146,2.6196,2.6236,2.6282,2.6337,2.641,2.6438,2.6505,2.657,2.6668,2.671,2.6764,2.6767,2.6781,2.6784,2.6787,2.6785,2.6724,2.6778,2.6778,2.6778,2.6778,2.6778,0,2.5974,2.6016,2.607,2.6144,2.6191,2.6211,2.6272,2.631,2.6368,2.6425,2.648,2.6556,2.6621,2.6682,2.6751,2.6783,2.6797,2.68,2.6797,2.6806,2.6778,2.6763,2.6787,2.6787,2.6787,2.6787,2.6787,2.6787,2.5996,2.6058,2.6089,2.6175,2.6217,2.6282,2.6316,2.6362,2.6408,2.6491,2.6545,2.6584,2.6644,2.6717,2.6778,2.6795,2.6819,2.6818,2.6838,2.681,2.6808,2.6807,2.6793,2.6823,2.6823,2.6862,2.6862,2.6862]},{"header":{"parameterUnit":"m.s-1","parameterCategory":1,"la1":30.2991,"la2":30.254,"lo1":-89.0895,"lo2":-89.0444,"dy":0.0017,"dx":0.0017,"nx":28,"ny":28,"refTime":"2023-08-07T03:00:00:Z","depth":0,"parameterNumber":3,"parameterNumberName":"V-component_of_WINDS"},"data":[0,0,0,0,0,0,0,0,0,0,0,0,0,0,0,0,0,0,0,0,0,0,0,0,0,0,0,0,0,0,0,0,0,0,0,0,0,0,0,0,0,0,0,0,0,0,0,0,0,0,0,0,0,0,0,0,0,0,4.4533,4.4534,0,4.4639,4.464,4.4641,4.4684,4.4684,4.4684,4.4684,4.4784,4.4787,4.4789,0,0,0,0,0,0,0,0,0,0,0,0,0,4.436,4.4363,4.4533,4.4534,4.4536,4.4639,4.464,4.4642,4.4684,4.4684,4.4684,4.4684,4.4783,4.4786,4.479,0,0,0,0,0,0,0,0,0,0,0,0,0,4.4447,4.4364,4.4533,4.457,4.4574,4.4638,4.464,4.4642,4.4684,4.4684,4.4684,4.4683,4.4782,4.4786,4.479,4.4823,0,0,4.4803,4.4805,0,0,0,0,0,0,0,0,4.4442,4.4453,4.4563,4.4567,4.4572,4.4648,4.4616,4.4702,4.4685,4.4642,4.4684,4.4683,4.4738,4.4746,4.4767,4.4828,4.4832,4.4804,4.4806,4.4808,4.4809,0,0,0,0,0,0,0,4.4436,4.4449,4.4575,4.4564,4.457,4.4578,4.459,4.4632,4.469,4.4646,4.4649,4.4662,4.4741,4.4762,4.4769,4.4834,4.4804,4.4807,4.481,4.4812,4.4926,4.4927,0,0,0,0,0,0,4.4425,4.4444,4.4571,4.4578,4.4505,4.4582,4.4595,4.4624,4.469,4.47,4.4662,4.4663,4.4755,4.4764,4.4773,4.4816,4.4808,4.4812,4.4815,4.4926,4.4926,4.4927,0,0,0,0,0,0,4.4421,4.4436,4.4567,4.4512,4.4529,4.4585,4.4617,4.4626,4.4648,4.4703,4.4712,4.4674,4.4755,4.4767,4.4811,4.482,4.4814,4.4818,4.4925,4.4926,4.4927,4.4902,0,0,0,0,0,0,4.4416,4.4434,4.4449,4.4512,4.4532,4.4606,4.4618,4.4629,4.4656,4.4659,4.4716,4.4725,4.4756,4.4804,4.4815,4.4826,4.4821,4.4925,4.4926,4.4926,4.4902,4.4902,4.4901,0,0,0,0,0,4.4409,4.4436,4.445,4.4465,4.4552,4.4606,4.4617,4.4654,4.4657,4.4671,4.4706,4.4723,4.4817,4.4808,4.4821,4.4833,4.4924,4.4925,4.4926,4.4902,4.4902,4.4901,0,0,0,0,0,0,4.4371,4.4445,4.4461,4.451,4.4552,4.4613,4.4633,4.4653,4.4693,4.4693,4.4735,4.4747,4.4788,4.4815,4.4803,4.4868,4.4872,4.4875,4.4849,4.4849,4.4849,4.4841,4.4825,0,0,0,0,0,4.4368,4.4408,4.447,4.4507,4.4527,4.4576,4.4601,4.4626,4.467,4.4687,4.4725,4.4765,4.4803,4.4828,4.4866,4.4906,4.4918,4.492,4.492,4.4919,4.4922,4.4944,4.4946,4.493,4.493,4.493,0,0,4.4362,4.4408,4.4431,4.45,4.4536,4.4574,4.4591,4.463,4.4658,4.4692,4.4737,4.4766,4.4813,4.4855,4.4876,4.4879,4.4929,4.4921,4.492,4.4923,4.4946,4.4947,4.4948,4.4931,4.4931,4.4931,0,0,4.4372,4.4411,4.4447,4.4482,4.4537,4.4569,4.4577,4.4636,4.4658,4.4704,4.473,4.4762,4.4828,4.486,4.4885,4.4907,4.4924,4.4917,4.4915,4.4937,4.4938,4.4939,4.4946,4.4949,4.492,4.492,4.492,0,4.4358,4.4419,4.4461,4.45,4.4529,4.4564,4.4599,4.463,4.4693,4.4711,4.4714,4.4797,4.4831,4.4881,4.4887,4.4906,4.4915,4.4911,4.4935,4.4937,4.4938,4.4946,4.4948,4.4919,4.4919,4.4919,4.4919,0,4.4399,4.444,4.4462,4.4525,4.4556,4.4592,4.4637,4.4663,4.4685,4.4716,4.4762,4.4804,4.4851,4.4865,4.4885,4.4917,4.4918,4.4927,4.4932,4.4938,4.4946,4.4949,4.4917,4.4918,4.4918,4.4918,0,0,4.4387,4.4474,4.4481,4.451,4.4572,4.4604,4.464,4.469,4.4711,4.4752,4.4783,4.4837,4.4847,4.4875,4.49,4.4918,4.4932,4.4926,4.4927,4.4925,4.4969,4.4962,4.4964,4.4944,4.4945,4.4945,4.4965,0,4.4405,4.4476,4.4515,4.4568,4.4606,4.464,4.4671,4.4712,4.4741,4.4776,4.4807,4.4846,4.4856,4.4873,4.4893,4.4926,4.4942,4.4925,4.4971,4.4972,4.4959,4.4969,4.4961,4.4978,4.4968,4.4969,4.4969,0,4.4436,4.448,4.4538,4.4597,4.4614,4.4642,4.469,4.4724,4.4769,4.4789,4.4821,4.4845,4.4883,4.4884,4.4935,4.4923,4.4944,4.4963,4.4964,4.497,4.4971,4.4974,4.4984,4.4987,4.4974,4.4974,4.4974,0,4.4422,4.4495,4.454,4.4563,4.4632,4.4651,4.468,4.4726,4.4753,4.4793,4.4811,4.4854,4.4877,4.4909,4.4944,4.4942,4.4991,4.4995,4.5007,4.5006,4.5016,4.5015,4.5029,4.5029,4.5029,4.5029,4.5029,0,4.4438,4.4472,4.4535,4.4562,4.46,4.4643,4.4679,4.471,4.475,4.4782,4.4812,4.484,4.4885,4.4918,4.4945,4.4982,4.4992,4.5008,4.5015,4.5006,4.5004,4.502,4.502,4.5029,4.5029,4.5029,4.5029,0,4.4429,4.4472,4.4523,4.4585,4.4601,4.4626,4.4678,4.4704,4.4735,4.4775,4.4787,4.4835,4.4876,4.4914,4.4967,4.4985,4.5023,4.5032,4.5009,4.5012,4.5022,4.502,4.5047,4.5053,4.5048,4.5048,4.5048,0,4.4436,4.4464,4.4529,4.4554,4.4584,4.4623,4.4652,4.4693,4.4721,4.4775,4.4794,4.4838,4.4875,4.4938,4.4976,4.5017,4.5027,4.5033,4.5033,4.5023,4.5027,4.5025,4.5027,4.5032,4.5032,4.5032,4.5032,0,4.4445,4.4466,4.4507,4.4556,4.459,4.4629,4.4669,4.4687,4.4736,4.4765,4.4809,4.4838,4.4894,4.4936,4.4982,4.5008,4.5028,4.5032,4.5037,4.5028,4.5014,4.5021,4.5007,4.5031,4.5031,4.5031,4.5031,4.5031,4.4445,4.4471,4.4521,4.4566,4.4601,4.4638,4.4666,4.4702,4.474,4.4791,4.4812,4.4856,4.4899,4.4963,4.4989,4.5023,4.5027,4.5033,4.5035,4.5036,4.5035,4.5008,4.5031,4.5031,4.5031,4.5031,4.5031,0,4.4456,4.449,4.4531,4.4588,4.4622,4.464,4.4685,4.4712,4.4752,4.4792,4.4829,4.4878,4.4919,4.4961,4.5004,4.5022,4.5032,4.5032,4.5031,4.5036,4.5028,4.502,4.5023,4.5023,4.5023,4.5023,4.5023,4.5023,4.4465,4.451,4.4536,4.4598,4.4632,4.4677,4.4702,4.4735,4.4767,4.4822,4.4858,4.4886,4.4926,4.4972,4.5009,4.502,4.5034,4.5032,4.5045,4.5037,4.5037,4.5037,4.503,4.5034,4.5034,4.505,4.505,4.505]}]]